sat.trackr.live / text

‹ back to catalog

STARLINK-34449

NORAD 64465 · 2025-130AD

PAYLOAD ACTIVE UNKNOWN

§ Identity

Operator
Country
US
Launch date
2025-06-18
Launch site
AFETR
Launch vehicle
Mass (kg)
RCS (m²)

Purposes: comms

External: N2YO · Heavens-Above · Gunter

§ Orbital elements

Epoch: 2026-09-20T22:53:48.424416Z

Period
93.85 min
Inclination
53.1570°
Eccentricity
0.0001611
Mean motion
15.34396669 rev/d
Perigee alt
461.6 km
Apogee alt
463.8 km
Semi-major
6,840.9 km
B*
4.8137e-5
RAAN
257.6640°
Arg perigee
86.9983°
Mean anomaly
273.1204°
Rev number
7,065

§ Raw data

STARLINK-344491 64465U 25130AD  26263.95403269  .00001250  00000+0  48137-4 0  99972 64465  53.1570 257.6640 0001611  86.9983 273.1204 15.34396669 70659

JSON: /api/v1/satellites/64465 · /tle

For live sub-satellite position, see the globe view (requires WebGL).

§ Visibility from observer

Set your observer location to see the next 7 days of passes ≥ 10°. The values pass through the URL so the page stays shareable.

No JS? Fill the form by hand. The geolocation button needs JavaScript.